Regional Weather Roundup
Issued by NWS

Home | Current Version | Previous Version | Text Only | Print | Product List | Glossary Off
Versions: 1 2 3 4 5 6 7 8 9 10 11 12 13 14 15 16 17 18 19 20 21 22 23 24 25 26 27 28 29 30 31 32 33 34 35 36 37 38 39 40 41 42 43 44 45 46 47 48 49 50

000
ASUS45 KSLC 051210
RWRUT

UTAH REGIONAL WEATHER ROUNDUP
NATIONAL WEATHER SERVICE SALT LAKE CITY UT
600 AM MDT TUE MAY 05 2015

UTZ001>011-023>025-051300-

NORTHERN UTAH

CITY           SKY/WX    TMP DP  RH WIND       PRES   REMARKS
BRIGHAM CITY   PTCLDY    49  44  81 CALM      29.86S
HILL AFB       MOCLDY    51  42  73 SE15      29.86F
LOGAN          CLEAR     50  43  77 CALM      29.86F
OGDEN          CLOUDY    52  43  71 S9        29.84F
PROVO AIRPORT  CLOUDY    54  45  71 SE6       29.87F
SALT LAKE CITY MOCLDY    57  43  59 S8        29.84F
VERNAL         CLOUDY    50  41  71 CALM      29.89F
WENDOVER       MOCLDY    54  37  54 W3        29.84F
HEBER CITY     CLOUDY    46  41  81 CALM      29.91S
WEST JORDAN    CLOUDY    55  48  76 S3        29.86F

$$

UTZ012>022-026-027-051300-

SOUTHERN/CENTRAL UTAH

CITY           SKY/WX    TMP DP  RH WIND       PRES   REMARKS
BLANDING       CLOUDY    49  46  91 S5        30.00S
BRYCE CANYON   CLOUDY    42  40  92 CALM      29.98F
CEDAR CITY     LGT RAIN  49  47  93 SE5       29.93S
DELTA          MOCLDY    52  47  84 SE8       29.88F
HANKSVILLE     CLOUDY    54  52  94 CALM      29.89S
MILFORD        LGT RAIN  51  48  89 S10       29.90S
MOAB/CYNLANDS  CLOUDY    56  51  84 W8        29.85S
PRICE          CLOUDY    51  45  79 NW3       29.90F
ST GEORGE      CLOUDY    59  48  67 W7        29.89S
KANAB          CLOUDY    46  46 100 CALM      29.96S

$$

REGIONAL REPORTS     COLORADO/ARIZONA

CITY           SKY/WX    TMP DP  RH WIND       PRES   REMARKS
CRAIG, CO      PTCLDY    34  32  92 SW3       29.95F
GRAND JUNCTION CLOUDY    55  43  63 E13       29.87F
RIFLE          MOCLDY    44  40  85 SW3       29.92S
MONTROSE       CLOUDY    49  46  90 SE8       29.93F
CORTEZ         LGT RAIN  47  46  97 CALM      29.93F
PAGE, AZ       CLOUDY    57  50  77 CALM      29.88S
GRAND CANYON   CLOUDY    44  43  96 W5        29.98S
KINGMAN        LGT RAIN  55  51  86 SE3       29.91S
FLAGSTAFF      CLOUDY    42  41  96 SW8       29.99S

$$

REGIONAL REPORTS    NEVADA/IDAHO/WYOMING

CITY           SKY/WX    TMP DP  RH WIND       PRES   REMARKS
LAS VEGAS, NV  CLOUDY    66  42  41 S10       29.78S
ELY            MOCLDY    39  33  79 S6        29.94F WCI  35
ELKO           PTCLDY    40  33  76 W3        29.90R
POCATELLO, ID  MOCLDY    49  41  74 S6        29.86R
BURLEY         MOCLDY    46  40  79 CALM      29.81F
EVANSTON, WY   MOCLDY    41  35  79 CALM      29.96F
ROCK SPRINGS   PTCLDY    42  37  82 E3        29.96S
KEMMERER       PTCLDY    37  36  93 N7        29.97F WCI  32

$$


USA.gov is the U.S. government's official web portal to all federal, state and local government web resources and services.